Location: Medlow Airstrip Trail, Medlow Bath NSW 2780, Australia
(33.6682°S, 150.3233°E)
Time: 22:21:56
(UTC+10:00)

N. Korean satellite - Visible Passes

Search period start: 03 August 2020 00:00
Search period end: 13 August 2020 00:00
Orbit: 453 x 506 km, 97.2° (Epoch: 02 August)

Date Brightness Start Highest point End Pass type
(mag) Time Alt. Az. Time Alt. Az. Time Alt. Az.
03 Aug 9.3 04:17:18 10° NE 04:18:31 17° ENE 04:18:31 17° ENE visible
03 Aug 8.6 05:51:41 10° NW 05:52:47 13° WNW 05:52:47 13° WNW visible
04 Aug 7.7 05:24:28 10° NNW 05:26:48 27° NW 05:26:48 27° NW visible
04 Aug 9.6 18:28:43 10° SSW 18:30:55 15° WSW 18:33:06 10° WNW visible
05 Aug 7.3 04:58:12 10° N 05:00:48 44° N 05:00:48 44° N visible
05 Aug 8.5 18:01:56 10° S 18:05:15 32° WSW 18:08:29 10° NW visible
06 Aug 8.3 04:32:33 10° NNE 04:34:50 32° ENE 04:34:50 32° ENE visible
07 Aug 9.5 04:07:34 10° ENE 04:08:52 16° ENE 04:08:52 16° ENE visible
07 Aug 8.1 05:40:50 10° NW 05:43:08 19° WNW 05:43:08 19° WNW visible
08 Aug 7.1 05:14:04 10° N 05:17:10 41° WNW 05:17:10 41° WNW visible
08 Aug 9.4 18:18:07 10° SSW 18:20:51 20° WSW 18:23:31 10° WNW visible
09 Aug 6.9 04:48:02 10° NNE 04:51:14 63° NE 04:51:14 63° NE visible
09 Aug 7.9 17:51:37 10° S 17:55:07 44° WSW 17:58:31 10° NNW visible
10 Aug 8.5 04:22:37 10° NE 04:25:17 30° E 04:25:17 30° E visible
10 Aug 8.5 05:57:48 10° WNW 05:59:23 12° W 05:59:34 12° W visible
11 Aug 9.7 03:58:00 10° ENE 03:59:21 14° E 03:59:21 14° E visible
11 Aug 7.6 05:30:11 10° NNW 05:33:21 26° W 05:33:38 26° W visible
11 Aug 9.8 18:34:46 10° SW 18:36:23 13° WSW 18:37:57 10° W visible
12 Aug 6.6 05:03:44 10° N 05:07:24 62° W 05:07:43 59° WSW visible
12 Aug 8.9 18:07:37 10° SSW 18:10:42 26° WSW 18:13:42 10° NW visible
